Date,TemperatureHighF,TemperatureAvgF,TemperatureLowF,DewpointHighF,DewpointAvgF,DewpointLowF,HumidityHigh,HumidityAvg,HumidityLow,PressureMaxIn,PressureMinIn,WindSpeedMaxMPH,WindSpeedAvgMPH,GustSpeedMaxMPH,PrecipitationSumIn
2013-5-1,77.1,58.8,38.6,41.0,30.3,18.0,89,41,12,30.03,29.91,13,2,14,0.00
2013-5-2,80.5,58.5,39.6,46.0,36.9,24.0,92,49,21,30.06,29.85,22,3,22,0.00
2013-5-3,69.1,54.8,36.9,42.0,36.1,26.0,91,52,31,30.11,29.91,14,2,15,0.00
2013-5-4,75.0,57.8,39.1,47.5,38.4,28.0,99,56,22,29.95,29.76,13,2,14,0.00
2013-5-5,75.1,57.0,36.5,41.0,33.5,29.0,91,47,19,29.89,29.72,14,2,15,0.00
2013-5-6,77.5,58.1,37.6,46.0,32.2,11.0,96,48,8,29.83,29.63,13,2,14,0.00
2013-5-7,84.3,62.3,40.2,49.0,39.2,31.0,95,50,16,29.75,29.58,12,2,13,0.00
2013-5-8,75.5,60.8,47.2,64.5,54.6,45.0,99,82,43,29.77,29.62,18,2,23,0.40
2013-5-9,69.4,61.0,55.8,64.0,59.1,54.5,100,94,63,29.62,29.46,12,1,13,0.28
2013-5-10,75.1,61.8,53.0,68.0,56.8,53.0,100,86,53,29.56,29.44,13,2,14,0.00
2013-5-11,68.6,61.1,57.1,62.5,59.5,57.0,100,95,80,29.44,29.21,17,3,20,0.21
2013-5-12,64.5,55.4,43.5,58.0,44.3,24.0,100,70,32,29.38,29.17,17,2,19,0.01
2013-5-13,49.9,44.5,40.3,36.0,29.5,26.0,81,55,43,29.63,29.37,18,4,22,0.00
2013-5-14,57.7,45.4,33.8,43.0,30.9,24.0,97,61,29,29.67,29.55,23,3,24,0.00
2013-5-15,62.4,46.3,29.2,50.5,38.6,28.0,100,79,30,29.62,29.23,23,3,24,0.13
2013-5-16,75.8,59.1,45.1,62.0,42.6,32.0,100,65,21,29.44,29.18,28,3,31,0.01
2013-5-17,64.4,53.5,44.0,42.0,38.2,33.0,85,59,33,29.81,29.44,20,4,23,0.00
2013-5-18,74.7,55.2,36.6,47.0,38.5,32.0,100,62,22,29.90,29.76,12,2,12,0.00
2013-5-19,69.9,55.4,43.1,54.5,48.4,42.0,99,80,46,29.91,29.75,18,3,23,0.20
2013-5-20,71.2,61.6,54.3,68.5,59.5,54.5,100,93,73,29.75,29.54,10,2,11,0.03
2013-5-21,79.8,63.0,51.9,71.7,59.5,50.0,100,90,60,29.69,29.41,16,3,19,0.70
2013-5-22,73.6,58.9,51.3,67.5,57.2,50.0,100,94,75,29.55,29.41,13,2,15,0.26
2013-5-23,76.4,65.1,55.9,71.3,62.2,55.0,100,91,73,29.46,29.32,19,4,20,0.00
2013-5-24,66.7,55.1,45.0,64.5,52.9,42.0,100,92,80,29.51,29.22,22,5,25,0.50
2013-5-25,45.1,42.2,35.0,44.0,40.8,33.0,99,94,87,29.50,29.40,29,8,32,1.02
2013-5-26,52.2,44.3,36.6,42.0,39.0,36.0,98,83,62,29.66,29.35,24,6,27,0.11
2013-5-27,67.5,50.9,34.8,53.5,37.0,32.0,100,67,27,29.77,29.65,22,3,24,0.00
2013-5-28,73.0,56.0,35.6,47.5,40.9,35.0,100,64,25,29.85,29.69,12,2,12,0.00
2013-5-29,60.1,56.5,52.4,60.0,54.9,47.0,100,95,75,29.73,29.56,5,1,7,0.14
2013-5-30,88.1,71.0,58.2,75.5,62.5,58.0,100,79,41,29.66,29.57,11,2,14,0.00
2013-5-31,92.2,74.4,57.9,70.0,61.5,56.0,100,71,31,29.70,29.49,19,2,20,0.00